COSMOS 1823 DEB, 29355

Orbit data source: Space-Track

COSMOS 1823 DEB, 29355 is space debris in LEO originally from a launch on Fri, 20 Feb 1987 UTC launched from the Plesetsk Missile And Space Complex (PKMTR). Debris objects in space refer to the collection of defunct objects orbiting the Earth. Examples of debris include non-operational satellites, rocket bodies, and fragments generated from explosions, collisions, or faulty payload assembly.

Loading next visibility...
Identifier
29355, 1987-020DW
Orbit
LEO
Country
Flag of CISCIS
Related business
Manufacturer
Unknown
Mission
Spacecraft
Bus & Motor
Unknown
Mass
Unknown
Launch date (UTC)
1987-02-20 (39 years ago)
Launch vehicle
Unknown
Launch site
Plesetsk Missile And Space Complex (PKMTR)
Object type
Payload
Rocket body
Debris
Shape & HBR
Unknown shape, 0.1 m
Radar Cross Section
Medium (>0.1 m² and <1 m²)

Expand to show TLE details & history
Last TLE update: 4 days ago

TLE from 4 days ago
0 COSMOS 1823 DEB
1 29355U 87020DW  26169.98085315  .00000252  00000-0  18764-2 0  9991
2 29355  73.6283   7.6126 0031360 129.6493  22.1783 12.45437504589554
Epoch: 2026-06-18T23:32Z
TLE epoch observation values (Epoch: 2026-06-18T23:32:25.712Z)
Latitude
26.84662°
Longitude
-81.22012°
Altitude
1,463.576 km
Speed
7.144 km/s
True Right ascension
11h 56m 24s
True Declination
26° 43' 15"
Sunlit
Object was in daylight at epoch
Visualization orbit readout
Latitude
Unknown
Longitude
Unknown
Altitude
Unknown
Speed
Unknown
Apparent Right ascension
Unknown
Apparent Declination
Unknown
Sunlit
N/A
Visualization observer readout
Local Sidereal Time
06:31:15
Azimuth
Unknown
Elevation
Unknown
Doppler factor
Unknown
Orbital elements
Apogee altitude
1,506.157 km
Perigee altitude
1,456.861 km
Semi-major axis
7,859.646 km
Eccentricity
0.00314
Inclination
73.6283°
RAAN
7.6126°
Arg. of periapsis
129.6493°
True anomaly
22.31445°
Mean anomaly
22.1783°
Eccentric anomaly
22.24632°
Mean motion
3.11486 °/min
Orbital period
115.57 mins
BSTAR
0.0018764
Loading maneuver chart data...
Computing Atmospheric mass density...

Documentation

Showing up to 5 results
|